Location: Gälforsberget
(66.6500°N, 22.4167°E)
Time: 06:53:08
(UTC+00:00)

ARIANE 5 R/B - Pass Details

Date: 11 April 2026
Orbit: 614 x 648 km, 98.0° (Epoch: 14 September)

Event Time Altitude Azimuth Distance (km) Brightness Sun altitude
Exits shadow 19:25:28 - 110° (ESE) 2,182 4.8 -7.7°
Reaches altitude 10° 19:25:59 10° 107° (ESE) 1,990 4.6 -7.7°
Maximum altitude 19:29:45 30° 46° (NE) 1,124 3.9 -8.0°
Drops below altitude 10° 19:33:34 10° 346° (NNW) 2,011 6.2 -8.2°
Sets 19:35:57 0° 336° (NNW) 2,926 7.6 -8.4°
